www.pogodaiklimat.ru

Погода и климат >> Архив погоды >> Швейцария >> Винау


ПОГОДА в Винау

  • Прогноз погоды в Винау
  • Монитор погоды в Винау

АРХИВ ПОГОДЫ в Винау

Время (UTC), дата Ветер
(напр.,м/с)
 
Видим.   Явления Облачность Т
(С)
Тd
(С)
f
(%)
Тe
(С)
Тes
(С)
Комфортность P
(гПа)
Po
(гПа)
Тmin
(С)
Tmax
(С)
R
(мм)
R24
(мм)
S
(см)
13 9.07 В 4
{7}
н/о н/о +23.4 +11.3 47 +26 +26 жарко 1014.7 966.9
14 9.07 С 3
{9}
н/о н/о +24.0 +12.0 47 +26 +26 жарко 1014.2 966.5
15 9.07 СВ 3
{9}
н/о н/о +22.4 +8.9 42 +24 +24 комфорт 1014.3 966.3
16 9.07 СВ 2
{7}
н/о н/о +23.4 +9.7 42 +25 +25 комфорт 1013.7 965.9
17 9.07 СВ 3
{6}
н/о н/о +23.4 +9.2 40 +25 +25 комфорт 1013.5 965.7
18 9.07 С 3
{9}
н/о н/о +21.9 +10.1 47 +24 +24 комфорт 1014.2 966.1 +24.0
19 9.07 СВ 2
{6}
н/о н/о +19.8 +9.5 51 +22 +22 комфорт 1015.1 966.6
20 9.07 СВ 3
{5}
н/о н/о +18.6 +8.9 53 +19 +19 1015.9 967.2
21 9.07 СВ 3
{6}
н/о н/о +16.8 +8.4 58 +17 +17 1016.4 967.4
22 9.07 СВ 3
{4}
н/о н/о +14.7 +8.9 68 +14 +14 1017.2 967.8
23 9.07 СВ 3
{4}
н/о н/о +13.9 +7.8 67 +13 +13 1017.7 968.1
00 10.07 СВ 5
{7}
н/о н/о +14.5 +6.8 60 +13 +13 1017.8 968.3
01 10.07 СВ 4
{8}
н/о н/о +13.7 +6.9 63 +12 +12 1018.1 968.4
02 10.07 СВ 3
{5}
н/о н/о +12.0 +7.1 72 +11 +11 1018.6 968.6
03 10.07 СВ 3
{8}
н/о н/о +11.5 +6.7 72 +10 +10 1018.7 968.6
04 10.07 СВ 2
{4}
н/о н/о +10.3 +6.9 79 +9 +9 1019.0 968.7
05 10.07 СВ 2
{3}
н/о н/о +12.3 +7.5 72 +12 +12 1018.8 968.9
06 10.07 СВ 5 н/о н/о +14.2 +6.4 59 +13 +13 1018.5 968.9 +10.3
07 10.07 В 5
{8}
н/о н/о +15.6 +6.6 55 +15 +15 1018.4 969.1
08 10.07 В 5
{7}
н/о н/о +16.8 +6.5 51 +16 +16 1018.3 969.2
09 10.07 СВ 5
{8}
н/о н/о +18.8 +7.6 48 +19 +19 1018.0 969.2
10 10.07 СВ 5
{8}
н/о н/о +19.6 +7.3 45 +20 +20 1017.6 969.0
11 10.07 СВ 4
{8}
н/о н/о +20.4 +7.2 42 +21 +21 комфорт 1017.2 968.7
12 10.07 В 4
{8}
н/о н/о +21.6 +7.8 41 +23 +23 комфорт 1016.7 968.5
13 10.07 В 3
{7}
н/о н/о +22.7 +7.5 38 +24 +24 комфорт 1016.2 968.2
14 10.07 В 4
{7}
н/о н/о +23.6 +7.3 35 +24 +24 комфорт 1015.8 967.9
15 10.07 СВ 3
{7}
н/о н/о +24.2 +4.8 28 +24 +24 комфорт 1015.4 967.7
16 10.07 СВ 3
{7}
н/о н/о +24.4 +5.4 29 +24 +24 комфорт 1015.3 967.6
17 10.07 С 2
{6}
н/о н/о +24.1 +6.5 32 +24 +24 комфорт 1015.3 967.6
18 10.07 С 2
{7}
н/о н/о +22.8 +7.1 36 +24 +24 комфорт 1015.6 967.6 +24.5
19 10.07 С 1
{3}
н/о н/о +18.9 +10.1 57 +21 +21 комфорт 1016.3 967.6
20 10.07 СВ 1
{2}
н/о н/о +17.2 +9.5 61 +19 +19 1017.2 968.2
21 10.07 З 1
{3}
н/о н/о +14.9 +10.0 72 +16 +16 1017.5 968.1
22 10.07 ЮЗ 1
{1}
н/о н/о +13.3 +10.6 84 +14 +14 1017.8 968.1
23 10.07 штиль 0
{1}
н/о н/о +12.4 +9.7 84 +12 +12 1017.9 968.0
00 11.07 штиль 0
{3}
н/о н/о +12.2 +10.1 87 +12 +12 1017.5 967.6
01 11.07 СВ 1
{1}
н/о н/о +12.0 +9.8 86 +13 +13 1017.0 967.1
02 11.07 В 1
{1}
н/о н/о +11.4 +9.3 87 +12 +12 1016.6 966.6
03 11.07 штиль 0
{1}
н/о н/о +10.6 +9.0 90 +10 +10 1016.5 966.4
04 11.07 ЮВ 1
{1}
н/о н/о +10.3 +9.1 92 +11 +11 1016.5 966.3
05 11.07 З 1
{1}
н/о н/о +11.3 +9.4 88 +12 +12 1016.4 966.4
06 11.07 ЮЗ 1 н/о н/о +13.0 +10.1 83 +14 +14 1016.1 966.4 +10.2
07 11.07 штиль 0
{1}
н/о н/о +14.6 +10.0 74 +14 +14 1015.8 966.4
08 11.07 ЮЗ 1
{1}
н/о н/о +16.2 +11.2 72 +18 +18 1015.7 966.6
09 11.07 СЗ 1
{2}
н/о н/о +17.2 +10.0 63 +19 +19 1015.3 966.4
10 11.07 ЮЗ 1
{2}
н/о н/о +18.8 +9.9 56 +20 +20 1015.1 966.5
11 11.07 В 1
{2}
н/о н/о +20.3 +11.3 56 +23 +23 комфорт 1014.3 966.0
12 11.07 С 1
{2}
н/о н/о +21.0 +10.7 52 +24 +24 комфорт 1013.8 965.6
13 11.07 С 1
{3}
н/о н/о +21.5 +10.2 49 +23 +23 комфорт 1013.9 965.8
14 11.07 В 1
{5}
н/о н/о +20.5 +12.3 59 +24 +24 комфорт 1014.5 966.2
15 11.07 СВ 2
{5}
н/о н/о +19.8 +14.3 71 +23 +23 комфорт 1014.8 966.4
16 11.07 С 1
{3}
н/о н/о +19.3 +13.5 69 +22 +22 комфорт 1014.5 966.0
17 11.07 штиль 0
{2}
н/о н/о +18.6 +15.2 81 +19 +19 1014.9 966.2
18 11.07 ЮВ 1
{5}
н/о н/о +18.2 +14.5 79 +20 +20 1015.0 966.3 +21.9
19 11.07 Ю 1
{1}
н/о н/о +17.3 +13.1 76 +19 +19 1015.4 966.5
20 11.07 ЮВ 1
{1}
н/о н/о +16.5 +14.0 85 +18 +18 1015.8 966.7
21 11.07 Ю 1
{1}
н/о н/о +15.8 +13.7 87 +17 +17 1015.9 966.7
22 11.07 ЮЗ 1
{1}
н/о н/о +14.6 +13.5 93 +16 +16 1016.1 966.7
23 11.07 Ю 1
{1}
н/о н/о +14.3 +13.7 96 +15 +15 1015.9 966.5
00 12.07 Ю 1
{2}
н/о н/о +13.3 +12.7 96 +14 +14 1015.8 966.2
01 12.07 штиль 0
{1}
н/о н/о +12.6 +12.2 97 +12 +12 1015.6 965.9
02 12.07 ЮЗ 1
{1}
н/о н/о +12.4 +11.9 97 +13 +13 1015.7 965.9
03 12.07 З 1
{1}
н/о н/о +12.9 +12.4 97 +14 +14 1015.5 965.8
04 12.07 штиль 0
{1}
н/о н/о +12.6 +11.8 95 +12 +12 1015.5 965.8
05 12.07 штиль 0
{1}
н/о н/о +13.3 +12.5 95 +13 +13 1015.5 965.9
06 12.07 ЮЗ 2
{4}
н/о н/о +15.3 +12.7 84 +15 +15 1014.9 965.7 +12.4
07 12.07 ЮЗ 2
{5}
н/о н/о +16.5 +12.7 78 +17 +17 1014.8 965.8
08 12.07 З 4
{7}
н/о н/о +19.5 +13.1 66 +21 +21 комфорт 1013.9 965.4
09 12.07 З 2
{10}
н/о н/о +17.3 +14.4 83 +18 +18 1014.8 965.9 0.7
10 12.07 З 2
{4}
н/о н/о +19.8 +14.7 72 +22 +22 комфорт 1014.1 965.7
11 12.07 З 1
{4}
н/о н/о +22.4 +14.9 63 +26 +26 жарко 1013.2 965.3
12 12.07 З 3
{10}
н/о н/о +23.9 +15.2 58 +27 +27 жарко 1012.3 964.7 0.1
13 12.07 З 4
{8}
н/о н/о +24.9 +12.5 46 +27 +27 жарко 1011.5 964.1
14 12.07 З 5
{10}
н/о н/о +25.4 +11.1 41 +27 +27 жарко 1011.0 963.7
15 12.07 З 4
{10}
н/о н/о +25.3 +11.8 43 +27 +27 жарко 1010.8 963.5 0.1
16 12.07 З 4
{8}
н/о н/о +25.3 +11.7 43 +27 +27 жарко 1010.7 963.4
17 12.07 З 3
{9}
н/о н/о +24.7 +11.2 43 +26 +26 жарко 1011.0 963.6
18 12.07 З 3
{10}
н/о н/о +23.9 +11.7 46 +25 +25 комфорт 1011.7 964.1 +26.1
19 12.07 З 3
{8}
н/о н/о +22.8 +11.2 48 +25 +25 комфорт 1012.6 964.8
20 12.07 З 2
{6}
н/о н/о +22.4 +10.4 47 +24 +24 комфорт 1013.2 965.3
21 12.07 ЮЗ 1
{8}
н/о н/о +20.4 +11.0 55 +23 +23 комфорт 1013.8 965.5
22 12.07 ЮЗ 1
{2}
н/о н/о +19.1 +10.7 58 +22 +22 комфорт 1014.3 965.8
23 12.07 З 1
{4}
н/о н/о +18.7 +10.9 60 +20 +20 1014.5 965.9
00 13.07 С 6
{9}
н/о н/о +18.7 +11.3 62 +19 +19 1015.4 966.7
01 13.07 В 3
{8}
н/о н/о +16.8 +12.1 74 +17 +17 1015.9 966.9
02 13.07 Ю 1
{3}
н/о н/о +15.6 +12.4 81 +17 +17 1016.0 966.8
03 13.07 СВ 2
{8}
н/о н/о +14.9 +13.0 88 +15 +15 1016.6 967.2
04 13.07 СВ 2
{2}
н/о н/о +15.4 +11.6 78 +16 +16 1017.0 967.7
05 13.07 СВ 2
{5}
н/о н/о +15.6 +13.0 85 +15 +15 1017.4 968.1
06 13.07 В 3
{8}
н/о н/о +17.1 +11.3 69 +17 +17 1017.5 968.5 +14.3
07 13.07 СВ 2
{4}
н/о н/о +18.1 +10.2 60 +19 +19 1017.5 968.6
08 13.07 СВ 2
{5}
н/о н/о +19.5 +10.8 57 +21 +21 комфорт 1017.4 968.8
09 13.07 В 3
{5}
н/о н/о +20.4 +10.2 52 +22 +22 комфорт 1017.2 968.7
10 13.07 В 2
{5}
н/о н/о +20.5 +9.7 50 +23 +23 комфорт 1017.1 968.7
11 13.07 С 2
{5}
н/о н/о +21.3 +10.4 50 +23 +23 комфорт 1016.8 968.5
12 13.07 СВ 2
{5}
н/о н/о +21.8 +9.3 45 +23 +23 комфорт 1016.6 968.4
13 13.07
{6}
н/о н/о +22.3 +9.7 45 1016.2 968.1
14 13.07 С 3
{6}
н/о н/о +22.2 +8.7 42 +24 +24 комфорт 1016.0 967.9
15 13.07 С 3
{7}
н/о н/о +23.5 +10.1 43 +25 +25 комфорт 1015.7 967.8
16 13.07 С 3
{7}
н/о н/о +23.0 +9.3 42 +25 +25 комфорт 1015.5 967.6
17 13.07 С 3
{7}
н/о н/о +22.5 +9.9 45 +24 +24 комфорт 1015.7 967.7
18 13.07 СВ 3
{7}
н/о н/о +21.4 +9.9 48 +23 +23 комфорт 1016.0 967.8 +23.5
19 13.07 СВ 2
{4}
н/о н/о +19.5 +10.8 57 +21 +21 комфорт 1016.7 968.1
20 13.07 В 1
{4}
н/о н/о +18.5 +10.6 60 +20 +20 1017.3 968.5
21 13.07 штиль 0
{4}
н/о н/о +17.1 +10.9 67 +17 +17 1017.7 968.7
22 13.07 ЮЗ 1
{1}
н/о н/о +15.8 +10.9 73 +17 +17 1017.9 968.6
23 13.07 З 1
{1}
н/о н/о +15.2 +12.2 82 +16 +16 1017.7 968.3
00 14.07 штиль 0
{4}
н/о н/о +15.2 +11.9 81 +15 +15 1017.4 968.0
01 14.07 СВ 1
{2}
н/о н/о +14.4 +11.8 84 +15 +15 1017.0 967.5
02 14.07 штиль 0
{1}
н/о н/о +12.6 +10.6 88 +12 +12 1016.9 967.1
03 14.07 штиль 0
{2}
н/о н/о +11.9 +11.0 94 +11 +11 1016.8 966.9
04 14.07 штиль 0
{1}
н/о н/о +11.1 +10.4 95 +10 +10 1016.6 966.6
05 14.07 штиль 0
{1}
н/о н/о +12.2 +11.1 93 +12 +12 1016.2 966.4
06 14.07 СВ 1
{2}
н/о н/о +14.8 +11.7 82 +15 +15 1015.6 966.3 +11.0
07 14.07 СВ 4
{6}
н/о н/о +18.3 +11.4 64 +18 +18 1014.9 966.2
08 14.07 СВ 4
{6}
н/о н/о +20.0 +11.7 59 +22 +22 комфорт 1014.6 966.2
09 14.07 В 5
{7}
н/о н/о +20.8 +11.0 53 +23 +23 комфорт 1014.2 966.0
10 14.07 СВ 4
{8}
н/о н/о +22.9 +10.8 46 +25 +25 комфорт 1013.6 965.7
11 14.07 СВ 4
{8}
н/о н/о +23.5 +9.6 41 +24 +24 комфорт 1013.0 965.3
12 14.07 СВ 3
{8}
н/о н/о +22.6 +8.3 40 +24 +24 комфорт 1012.5 964.6
13 14.07 СВ 4
{9}
н/о н/о +24.9 +8.5 35 +25 +25 комфорт 1011.4 964.0
14 14.07 С 2
{7}
н/о н/о +23.9 +9.0 39 +25 +25 комфорт 1011.1 963.5
15 14.07 С 6
{11}
н/о н/о +22.8 +11.5 49 +25 +25 комфорт 1011.4 963.6
16 14.07 С 6
{12}
н/о н/о +21.9 +11.0 50 +24 +24 комфорт 1011.7 963.8
17 14.07 С 4
{11}
н/о н/о +19.5 +12.1 62 +21 +21 комфорт 1012.9 964.5
18 14.07 С 4
{12}
н/о н/о +17.7 +11.9 69 +18 +18 1014.0 965.2 +25.7
19 14.07 С 4
{8}
н/о н/о +16.9 +11.4 70 +17 +17 1014.4 965.5
20 14.07 С 3
{10}
н/о н/о +16.0 +12.2 78 +16 +16 1015.2 966.1 0.1
21 14.07 З 1
{10}
н/о н/о +14.6 +12.6 88 +15 +15 1016.2 966.8 2
22 14.07 В 2
{3}
н/о н/о +14.3 +13.2 93 +14 +14 1015.7 966.3 1
23 14.07 В 1
{3}
н/о н/о +13.7 +12.7 94 +14 +14 1015.5 966.0 3
00 15.07 СВ 1
{10}
н/о н/о +13.8 +13.1 96 +14 +14 1015.3 965.8 1
01 15.07 ЮЗ 1
{2}
н/о н/о +13.8 +13.4 97 +15 +15 1014.9 965.4 0.4
02 15.07 В 1
{2}
н/о н/о +14.0 +13.3 96 +14 +14 1014.2 964.8 0.3
03 15.07 В 2
{2}
н/о н/о +14.2 +13.3 94 +14 +14 1014.1 964.7
04 15.07 СВ 2
{4}
н/о н/о +14.3 +12.9 91 +14 +14 1013.9 964.6
05 15.07 В 1
{3}
н/о н/о +14.1 +12.7 91 +14 +14 1014.4 965.0
06 15.07 СВ 4
{6}
н/о н/о +14.7 +13.2 91 +14 +14 1014.4 965.1 +13.7
07 15.07 СВ 4
{6}
н/о н/о +15.3 +12.8 85 +14 +14 1014.7 965.5
08 15.07 СВ 4
{7}
н/о н/о +15.0 +12.1 83 +14 +14 1015.5 966.2
09 15.07 СВ 4
{7}
н/о н/о +15.6 +12.1 80 +15 +15 1015.5 966.3
10 15.07 СВ 4
{7}
н/о н/о +16.4 +12.3 77 +16 +16 1015.5 966.4
11 15.07 С 5
{8}
н/о н/о +17.6 +12.3 71 +17 +17 1015.3 966.5
12 15.07 СВ 5
{9}
н/о н/о +19.1 +12.1 64 +20 +20 1014.7 966.1
13 15.07 СВ 5
{10}
н/о н/о +21.7 +13.0 58 +24 +24 комфорт 1013.8 965.7
14 15.07 С 5
{9}
н/о н/о +21.4 +12.3 56 +24 +24 комфорт 1014.1 966.0
15 15.07 С 4
{10}
н/о н/о +21.0 +12.1 57 +24 +24 комфорт 1014.0 965.8
16 15.07 СВ 3
{8}
н/о н/о +21.9 +12.9 57 +25 +25 комфорт 1013.8 965.8
17 15.07 С 4
{7}
н/о н/о +22.4 +12.3 53 +25 +25 комфорт 1013.8 965.8
18 15.07 С 2
{10}
н/о н/о +21.6 +12.8 57 +24 +24 комфорт 1014.2 966.1 +22.6
19 15.07 С 2
{6}
н/о н/о +20.1 +12.7 62 +23 +23 комфорт 1014.9 966.5
20 15.07 В 1
{4}
н/о н/о +17.8 +13.1 74 +19 +19 1015.7 966.9
21 15.07 СВ 1
{6}
н/о н/о +18.0 +13.0 73 +20 +20 1016.2 967.4
22 15.07 ЮЗ 1
{2}
н/о н/о +15.0 +13.9 93 +15 +15 1017.1 967.7
23 15.07 штиль 0
{1}
н/о н/о +14.2 +12.9 92 +14 +14 1017.4 967.9
00 16.07 штиль 0
{6}
н/о н/о +13.3 +12.7 96 +13 +13 1017.6 967.9
01 16.07 СВ 1
{1}
н/о н/о +12.8 +12.4 97 +14 +14 1017.7 967.9
02 16.07 ЮЗ 1
{1}
н/о н/о +12.1 +11.8 98 +13 +13 1017.9 968.0
03 16.07 ЮЗ 1
{2}
н/о н/о +12.0 +11.5 97 +13 +13 1018.1 968.1
04 16.07 ЮЗ 1
{1}
н/о н/о +11.0 +10.6 97 +11 +11 1018.2 968.1
05 16.07 штиль 0
{1}
н/о н/о +12.1 +11.9 99 +11 +11 1018.2 968.3
06 16.07 СВ 1
{2}
н/о н/о +14.2 +12.9 92 +15 +15 1018.0 968.4 +11.0
07 16.07 СВ 2
{3}
н/о н/о +17.4 +13.2 76 +18 +18 1017.4 968.4
08 16.07 СВ 2
{4}
н/о н/о +19.8 +13.2 66 +22 +22 комфорт 1016.8 968.3
09 16.07 В 2
{4}
н/о н/о +20.3 +12.1 59 +23 +23 комфорт 1016.5 968.1
10 16.07 В 2
{4}
н/о н/о +22.4 +11.9 51 +25 +25 комфорт 1016.0 967.9
11 16.07 В 2
{5}
н/о н/о +23.7 +10.4 43 +25 +25 комфорт 1015.5 967.7
12 16.07 СЗ 1
{5}
н/о н/о +25.0 +10.4 40 +26 +26 жарко 1014.7 967.1

 

Местоположение метеостанции Винау (Швейцария): широта 47.25 долгота 7.78 высота над уровнем моря 416 м.

В архиве по умолчанию представлена погода в Винау за последнюю неделю. Архивные данные за месяц целиком и за предыдущие месяцы, начиная с января 2011 года, Вы можете получить, выбрав интересующий диапазон дат из раскрывающегося списка и нажав кнопку "Ввод!".


*Определитесь, кто Вы:
робот инопланетянин человек

Внимание! Время в таблицах - всемирное. Для получения местного времени необходимо прибавить поправку, которая равна 1 ч.

Смотрите также архив погоды в соседних городах и на ближайших метеорологических станциях:

Погода в Лангенбруке (Швейцария) (11 км)
Погода в Оберёш-Коппигене (Швейцария) (18 км)
Погода в Эгольцвиле (Швейцария) (18 км)
Погода в Госгене (Швейцария) (19 км)
Погода в Рюненберге (Швейцария) (21 км)
Погода в Букс-Зуре (Швейцария) (27 км)
Погода в Шомоне (Швейцария) (27 км)
Погода в Гренхене (Швейцария) (28 км)
Погода в Беромюнстере (Швейцария) (30 км)
Погода на Напфе (Швейцария) (30 км)

Пояснения к столбцам:

Ветер - указаны скорость ветра в м/с - средняя за 10 мин, порывы в срок и между сроками (в фигурных скобках) и направление, откуда дует ветер: С - северный, СВ - северо-восточный, В - восточный, ЮВ - юго-восточный, Ю - южный, ЮЗ - юго-западный, З - западный, СЗ - северо-западный.
Видимость - горизонтальная дальность видимости в метрах или километрах. При видимости от 1 до 10 км при отсутствии осадков обычно наблюдается дымка, при ухудшении видимости до 1 км и менее - туман. В сухую погоду видимость может ухудшаться дымом, пылью или мглою.
Явления - указаны атмосферные явления, наблюдавшиеся в срок или в последний час перед сроком; фигурными скобками обозначены явления, наблюдавшиеся между сроками (за 1-3 часа до срока); квадратными скобками обозначены град или гололедные отложения с указанием их диаметра в мм.
Облачность - указаны через наклонную черту общая и нижняя облачность в баллах и высота нижней границы облаков в метрах; квадратными скобками обозначены формы облаков: Ci - перистые, Cs - перисто-слоистые, Cc - перисто-кучевые, Ac - высококучевые, As - высокослоистые, Sc - слоисто-кучевые, Ns - слоисто-дождевые, Cu - кучевые, Cb - кучево-дождевые. Подробнее классификацию облаков см. в Атласе облаков (PDF).
T - Температура воздуха - температура, измеренная на высоте 2 м над землей.
Td - Температура точки росы - температура, при понижении до которой содержащийся в воздухе водяной пар достигнет насыщения.
f - Относительная влажность воздуха - влажноcть воздуха, измеренная на высоте 2 м над землей.
Te - Эффективная температура - температура, которую ощущает одетый по сезону человек в тени. Характеристика душности погоды. При расчете учитывается влияние влажности воздуха и скорости ветра на теплоощущения человека.
Tes - Эффективная температура на солнце - температура, которую ощущает человек, с поправкой на солнечный нагрев. Характеристика знойности погоды. Зависит от высоты солнца над горизонтом, облачности и скорости ветра. Ночью, в пасмурную погоду, а также при ветре 12 м/с и более поправка равна нулю.
P - Атмосферное давление - приведенное к уровню моря атмосферное давление.
Po - Атмосферное давление - измеренное на уровне метеостанции атмосферное давление.
Tmin - Минимальная температура - минимум температуры воздуха на высоте 2 м над землей.
Tmax - Максимальная температура - максимум температуры воздуха на высоте 2 м над землей.
R - Количество осадков - Количество выпавших осадков за период времени, мм. При наведении курсора мыши на число - период времени, за который выпало указанное количество осадков.
R24 - Количество осадков - Количество выпавших осадков за 24 часа, мм.
S - Снежный покров - Высота снежного покрова, см. При наведении курсора мыши на число - состояние снежного покрова и степень покрытия местности в баллах.